Location: Milton
(43.5183°N, 79.8775°W)
Time: 13:47:25
(UTC+00:00)

UNISAT 6 - Pass Details

Date: 20 March 2023
Orbit: 599 x 680 km, 97.7° (Epoch: 02 June)

Event Time Altitude Azimuth Distance (km) Brightness Sun altitude
Rises 10:09:26 0° 168° (SSE) 2,851 ? -14.1°
Reaches altitude 10° 10:11:34 10° 170° (S) 1,960 ? -13.7°
Maximum altitude 10:15:50 81° 258° (WSW) 634 ? -12.9°
Drops below altitude 10° 10:20:14 10° 345° (NNW) 2,021 ? -12.2°
Sets 10:22:29 0° 347° (NNW) 2,947 ? -11.8°
